Wind_Speed
106 107 106 106 103 96 83 66 59 61 67 70 69 71 75 76 69 73 80 87 94 100 97 96 94 91 95
109 110 108 105 99 90 81 68 60 60 64 66 73 77 77 68 70 75 84 92 97 96 99 98 96 94 97
108 111 105 103 93 83 77 68 61 61 60 68 73 75 75 72 75 79 90 93 97 98 98 96 92 98 99
114 111 105 95 83 75 74 68 62 59 60 68 73 75 77 79 78 87 91 94 98 99 97 95 95 103 98
110 108 102 88 74 71 71 69 62 57 59 69 75 78 79 83 80 91 93 96 98 98 101 98 99 103 94
102 102 91 79 66 67 70 67 62 61 61 67 76 77 81 81 85 93 95 99 99 102 102 97 101 101 101
99 93 82 68 62 65 66 64 61 61 66 70 76 78 79 81 91 96 99 100 102 102 99 99 105 100 99
90 80 69 54 55 64 62 63 58 63 69 76 77 77 79 88 93 98 101 102 109 105 97 103 100 99 96
76 64 59 60 59 58 60 55 61 63 71 75 74 79 82 89 95 99 102 106 103 95 101 98 95 96 97
62 54 57 54 53 52 53 55 60 68 73 74 77 78 84 93 98 101 104 101 97 98 95 93 93 95 97
53 53 52 48 46 48 52 59 63 70 75 76 75 82 89 94 98 102 102 92 97 91 93 91 91 95 91
52 48 47 44 45 51 56 60 68 73 72 72 75 84 92 96 97 99 91 94 92 91 90 88 89 88 83
49 46 44 43 44 50 55 59 63 68 68 76 82 88 90 94 96 87 93 89 86 88 86 87 87 82 73
44 43 42 44 47 53 60 62 68 71 77 80 84 84 88 89 85 89 85 85 86 87 89 87 84 73 65
40 39 44 50 54 60 62 67 69 71 77 77 79 82 78 81 85 85 82 84 84 89 86 80 71 66 60
36 40 46 54 57 61 63 62 61 67 72 72 69 72 76 79 76 80 83 84 83 82 80 71 62 59 56
33 37 41 45 49 52 49 48 53 59 60 63 69 74 77 75 74 79 82 80 79 73 66 59 55 52 47
Wind_Direction
310 311 313 313 311 306 300 292 290 291 292 294 294 293 295 300 304 304 304 304 307 310 315 317 318 315 316
307 308 309 310 308 302 294 290 289 292 293 294 293 296 299 302 307 302 305 305 309 312 314 317 317 316 315
306 305 306 307 304 295 288 286 285 289 295 292 296 297 299 305 304 306 306 307 312 314 316 316 315 316 316
304 303 303 303 298 287 282 281 283 286 291 292 293 297 299 304 306 309 309 310 314 316 315 316 316 318 316
300 301 301 298 290 280 276 277 281 284 286 289 292 296 302 307 307 307 311 313 314 314 316 316 316 318 314
295 296 296 292 282 274 271 275 278 283 282 286 290 296 301 304 304 308 310 313 313 314 316 315 316 316 314
293 292 290 284 276 271 270 273 280 281 283 288 289 296 301 302 302 307 309 312 315 314 315 315 316 313 317
289 288 283 272 276 268 269 272 276 278 281 284 291 297 299 299 303 307 311 311 312 313 313 314 313 315 319
284 279 272 270 264 264 265 271 276 281 283 288 293 294 297 301 303 308 309 310 313 311 313 314 313 318 321
278 272 269 264 261 259 264 269 274 277 279 285 292 295 297 300 303 306 307 310 310 312 312 312 317 321 322
271 268 264 260 256 256 261 267 271 276 282 290 291 294 297 300 303 303 309 308 310 310 310 315 319 321 321
269 262 257 250 249 254 260 264 270 275 281 286 291 296 297 300 300 305 306 309 309 310 313 317 320 322 319
260 257 251 247 250 253 260 266 268 277 281 288 291 295 299 300 302 306 308 308 309 313 317 321 321 321 317
258 249 239 238 240 249 257 261 264 275 282 288 291 295 296 301 304 306 307 309 313 317 322 323 320 317 316
253 246 238 237 241 249 259 267 272 278 283 287 291 294 299 304 304 304 309 314 318 321 323 321 318 316 314
246 240 235 238 244 253 260 269 276 281 286 289 292 298 301 303 305 308 312 317 321 324 323 318 316 314 314
237 235 241 247 250 257 266 274 278 281 285 293 296 300 303 303 308 313 316 322 324 322 317 314 314 313 314
Height
10457 10449 10444 10431 10414 10398 10395 10394 10390 10383 10375 10370 10367 10365 10359 10353 10346 10338 10328 10319 10308 10298 10284 10269 10256 10243 10231
10437 10428 10423 10411 10397 10384 10375 10374 10373 10367 10360 10354 10348 10344 10340 10335 10328 10319 10311 10300 10289 10277 10263 10251 10235 10222 10208
10422 10404 10403 10390 10376 10366 10359 10357 10356 10353 10345 10338 10333 10327 10323 10320 10311 10303 10292 10280 10270 10257 10244 10230 10216 10202 10185
10396 10387 10378 10369 10356 10347 10341 10340 10340 10338 10331 10323 10318 10312 10306 10304 10295 10286 10272 10260 10249 10237 10224 10210 10196 10179 10165
10372 10362 10356 10346 10338 10330 10324 10322 10324 10322 10315 10309 10302 10298 10292 10285 10276 10264 10254 10241 10230 10218 10204 10190 10175 10160 10144
10346 10339 10333 10326 10319 10312 10307 10305 10307 10304 10299 10292 10285 10282 10277 10269 10259 10247 10235 10223 10210 10197 10184 10170 10155 10139 10124
10323 10315 10310 10306 10301 10296 10293 10291 10290 10287 10282 10276 10271 10269 10262 10253 10241 10230 10217 10204 10191 10178 10164 10151 10136 10118 10103
10296 10291 10290 10289 10286 10279 10279 10277 10274 10270 10265 10260 10256 10253 10246 10234 10223 10211 10198 10185 10173 10159 10145 10132 10116 10099 10082
10268 10268 10268 10267 10265 10264 10264 10262 10257 10254 10248 10244 10243 10237 10227 10215 10204 10194 10180 10169 10155 10139 10125 10112 10098 10079 10060
10247 10248 10249 10249 10249 10249 10249 10246 10243 10237 10232 10232 10229 10219 10210 10196 10188 10177 10163 10152 10136 10121 10106 10094 10080 10063 10044
10228 10229 10230 10233 10234 10235 10234 10230 10228 10223 10217 10216 10212 10202 10193 10182 10171 10159 10147 10134 10119 10104 10092 10079 10063 10047 10026
10211 10212 10214 10216 10217 10219 10218 10218 10213 10208 10205 10203 10196 10187 10176 10164 10152 10142 10129 10117 10101 10087 10074 10061 10045 10028 10010
10194 10197 10200 10201 10204 10204 10203 10204 10199 10193 10193 10188 10180 10171 10160 10148 10136 10125 10109 10098 10086 10071 10054 10041 10022 10009 9995
10181 10184 10186 10188 10191 10192 10189 10188 10185 10185 10180 10173 10165 10156 10145 10134 10121 10105 10096 10079 10066 10051 10033 10020 10002 9990 9980
10166 10170 10173 10175 10179 10179 10177 10175 10175 10174 10166 10158 10149 10140 10130 10120 10106 10090 10075 10061 10047 10030 10015 10003 9991 9975 9964
10155 10157 10161 10162 10164 10164 10163 10165 10165 10158 10151 10144 10135 10126 10115 10106 10091 10071 10057 10044 10031 10017 10002 9984 9973 9961 9951
10143 10146 10149 10150 10152 10152 10153 10155 10150 10143 10137 10131 10121 10111 10098 10082 10074 10061 10039 10029 10013 9998 9985 9972 9958 9948 9939